This demonstration page uses our WeatherBlox Daily Observations layout. Learn more.

Left ArrowRight Arrow

40.92945, -100.16068

Hourly Observations for February 12, 2015

Temp ( °F °C ) Dew Point ( °F °C ) Humidity (%) Winds ( mph kmh ) Pressure ( in mb ) Visibility ( mi km ) Precip ( " mm )
12:15 am 00:15 Partly Cloudy 28 -2.1 20 -6.4 73 73 NE 8 13 30.56 1035 10 16 N/A
12:35 am 00:35 Cloudy 28 -2 20 -6.7 71 71 NE 14 22 30.59 1036 10 16 N/A
12:55 am 00:55 Cloudy 28 -2.2 19 -7.1 69 69 NE 15 24 30.59 1036 10 16 N/A
1:15 am 01:15 Cloudy 27 -3 19 -7.4 72 72 NE 14 22 30.59 1036 10 16 N/A
1:35 am 01:35 Cloudy 26 -3.5 18 -7.9 72 72 NE 17 28 30.62 1037 10 16 N/A
1:55 am 01:55 Cloudy 25 -3.8 17 -8.3 71 71 NNE 17 28 30.65 1038 10 16 N/A
2:15 am 02:15 Cloudy 25 -4.1 16 -8.7 71 71 NE 14 22 30.65 1038 10 16 N/A
2:35 am 02:35 Cloudy 24 -4.5 17 -8.3 75 75 NE 14 22 30.65 1038 10 16 N/A
2:55 am 02:55 Cloudy 23 -4.8 17 -8.5 76 76 ENE 12 19 30.68 1039 10 16 N/A
3:15 am 03:15 Cloudy 22 -5.5 17 -8.5 80 80 ENE 12 19 30.65 1038 10 16 N/A
3:35 am 03:35 Cloudy 22 -5.7 17 -8.5 81 81 NE 13 20 30.65 1038 10 16 N/A
3:55 am 03:55 Cloudy 21 -6.2 16 -8.8 82 82 ENE 13 20 30.65 1038 10 16 N/A
4:15 am 04:15 Cloudy 20 -6.6 16 -9 83 83 ENE 12 19 30.68 1039 10 16 N/A
4:35 am 04:35 Cloudy 19 -7 16 -9.1 85 85 ENE 13 20 30.68 1039 10 16 N/A
4:55 am 04:55 Cloudy 19 -7.3 15 -9.3 86 86 ENE 10 17 30.71 1040 10 16 N/A
5:15 am 05:15 Cloudy 19 -7.5 15 -9.6 85 85 NE 10 17 30.71 1040 10 16 N/A
5:35 am 05:35 Cloudy 18 -7.6 14 -9.9 84 84 ENE 12 19 30.68 1039 10 16 N/A
5:55 am 05:55 Cloudy 18 -7.7 13 -10.5 81 81 ENE 12 19 30.68 1039 10 16 N/A
6:15 am 06:15 Cloudy 18 -8 13 -10.8 81 81 E 9 15 30.68 1039 10 16 N/A
6:35 am 06:35 Cloudy 17 -8.3 12 -11.1 80 80 ENE 9 15 30.68 1039 10 16 N/A
6:55 am 06:55 Cloudy 17 -8.2 12 -11 80 80 E 7 11 30.68 1039 10 16 N/A
7:15 am 07:15 Cloudy 17 -8.5 12 -11.1 82 82 E 8 13 30.68 1039 10 16 N/A
7:35 am 07:35 Cloudy 17 -8.5 12 -11.3 80 80 E 7 11 30.71 1040 10 16 N/A
7:55 am 07:55 Mostly Cloudy 17 -8.6 11 -11.5 80 80 E 6 9 30.68 1039 10 16 N/A
8:15 am 08:15 Mostly Cloudy 17 -8.5 11 -11.6 79 79 ESE 7 11 30.68 1039 10 16 N/A
8:35 am 08:35 Sunny 17 -8.6 11 -11.6 79 79 ESE 8 13 30.68 1039 10 16 N/A
8:55 am 08:55 Sunny 17 -8.5 11 -11.9 77 77 ESE 7 11 30.68 1039 10 16 N/A
9:15 am 09:15 Sunny 17 -8.4 11 -11.8 77 77 ESE 7 11 30.68 1039 10 16 N/A
9:35 am 09:35 Sunny 17 -8.1 10 -12.1 73 73 E 8 13 30.65 1038 10 16 N/A
9:55 am 09:55 Sunny 18 -7.7 10 -12.1 71 71 ESE 9 15 30.65 1038 10 16 N/A
10:15 am 10:15 Sunny 19 -7.5 11 -11.8 72 72 SE 7 11 30.68 1039 10 16 N/A
10:35 am 10:35 Sunny 19 -7 10 -12.1 67 67 SSE 7 11 30.65 1038 10 16 N/A
10:55 am 10:55 Sunny 20 -6.6 9 -12.8 62 62 SSE 9 15 30.59 1036 10 16 N/A
11:15 am 11:15 Sunny 21 -6.2 9 -12.8 60 60 SSE 8 13 30.59 1036 10 16 N/A
11:35 am 11:35 Sunny 21 -5.9 8 -13.1 57 57 SSE 12 19 30.59 1036 10 16 N/A
11:55 am 11:55 Sunny 23 -5.1 9 -12.7 56 56 SSE 13 20 30.56 1035 10 16 N/A
12:15 pm 12:15 Sunny 24 -4.7 8 -13.1 52 52 SSE 13 20 30.56 1035 10 16 N/A
12:35 pm 12:35 Sunny 24 -4.6 8 -13.1 52 52 SSE 13 20 30.56 1035 10 16 N/A
12:55 pm 12:55 Partly Cloudy 24 -4.5 8 -13.4 50 50 S 10 17 30.53 1034 10 16 N/A
1:15 pm 13:15 Partly Cloudy 24 -4.4 5 -15 44 44 SSE 12 19 30.50 1033 10 16 N/A
1:35 pm 13:35 Sunny 24 -4.3 5 -15.1 43 43 S 13 20 30.48 1032 10 16 N/A
1:55 pm 13:55 Sunny 25 -4 6 -14.3 45 45 S 15 24 30.48 1032 10 16 N/A
2:15 pm 14:15 Sunny 26 -3.6 5 -14.8 42 42 SSW 16 26 30.48 1032 10 16 N/A
2:35 pm 14:35 Sunny 27 -3 6 -14.7 40 40 S 15 24 30.45 1031 10 16 N/A
2:55 pm 14:55 Sunny 27 -2.6 8 -13.4 44 44 S 16 26 30.45 1031 10 16 N/A
3:15 pm 15:15 Sunny 28 -2.3 9 -13 44 44 S 15 24 30.39 1029 10 16 N/A
3:35 pm 15:35 Sunny 30 -1.2 11 -11.8 45 45 S 14 22 30.39 1029 10 16 N/A
3:55 pm 15:55 Sunny 29 -1.5 10 -12.4 44 44 S 10 17 30.39 1029 10 16 N/A
4:15 pm 16:15 Sunny 31 -0.8 10 -12.2 42 42 SSW 10 17 30.36 1028 10 16 N/A
4:35 pm 16:35 Sunny 30 -1 11 -11.5 45 45 SSW 15 24 30.36 1028 10 16 N/A
4:55 pm 16:55 Sunny 30 -1 11 -11.7 44 44 S 12 19 30.36 1028 10 16 N/A
5:15 pm 17:15 Partly Cloudy 30 -1.1 12 -11.2 47 47 S 12 19 30.36 1028 10 16 N/A
5:35 pm 17:35 Partly Cloudy 29 -1.4 10 -12 45 45 S 14 22 30.36 1028 10 16 N/A
5:55 pm 17:55 Sunny 29 -1.9 11 -11.6 48 48 S 9 15 30.33 1027 10 16 N/A
6:15 pm 18:15 Clear 28 -2.4 10 -12 48 48 S 9 15 30.33 1027 10 16 N/A
6:35 pm 18:35 Clear 27 -2.8 10 -12.1 49 49 SSE 9 15 30.33 1027 10 16 N/A
6:55 pm 18:55 Clear 26 -3.1 11 -11.9 51 51 SSE 7 11 30.33 1027 10 16 N/A
7:15 pm 19:15 Clear 26 -3.5 11 -11.6 54 54 SSE 8 13 30.33 1027 10 16 N/A
7:35 pm 19:35 Clear 25 -3.7 11 -11.6 55 55 SSE 9 15 30.36 1028 10 16 N/A
7:55 pm 19:55 Clear 25 -3.8 11 -11.7 55 55 SSE 10 17 30.36 1028 10 16 N/A
8:15 pm 20:15 Clear 25 -4 11 -11.6 56 56 SSE 8 13 30.36 1028 10 16 N/A
8:35 pm 20:35 Clear 24 -4.2 11 -11.5 57 57 SSE 9 15 30.33 1027 10 16 N/A
8:55 pm 20:55 Clear 24 -4.5 11 -11.4 59 59 S 8 13 30.33 1027 10 16 N/A
9:15 pm 21:15 Clear 24 -4.5 11 -11.4 59 59 S 7 11 30.33 1027 10 16 N/A
9:35 pm 21:35 Clear 23 -4.8 11 -11.4 60 60 S 6 9 30.33 1027 10 16 N/A
9:55 pm 21:55 Clear 24 -4.7 12 -11.1 61 61 S 8 13 30.33 1027 10 16 N/A
10:15 pm 22:15 Clear 24 -4.5 11 -11.5 58 58 S 6 9 30.33 1027 10 16 N/A
10:35 pm 22:35 Clear 24 -4.7 11 -11.4 60 60 S 5 7 30.33 1027 10 16 N/A
10:55 pm 22:55 Clear 24 -4.5 12 -11.2 60 60 SSW 7 11 30.33 1027 10 16 N/A
11:15 pm 23:15 Clear 24 -4.4 12 -11.1 60 60 S 6 9 30.33 1027 10 16 N/A
11:35 pm 23:35 Clear 24 -4.4 12 -10.9 61 61 S 3 6 30.27 1025 10 16 N/A
11:55 pm 23:55 Clear 24 -4.4 13 -10.8 61 61 Calm 30.27 1025 10 16 N/A

Powered by AerisWeather